This is the latest recevied weather packets stored in our database for station/object KB3VSP. If no packets are shown the sender has not sent any weather packets the latest 10 day(s).
| Time | Temp. | Humidity | Pressure | Rain* | Wind** | Luminosity | Snow |
|---|---|---|---|---|---|---|---|
| 1777917337 | 20.56° C | 50% | 1008.6 hPa | 0 mm | - | 732 W/m² | - |
| 1777917034 | 20.56° C | 50% | 1008.9 hPa | 0 mm | - | 773 W/m² | - |
| 1777916732 | 20.56° C | 49% | 1009 hPa | 0 mm | - | 709 W/m² | - |
| 1777916428 | 20.56° C | 50% | 1008.6 hPa | 0 mm | - | 636 W/m² | - |
| 1777916125 | 20° C | 51% | 1008.5 hPa | 0 mm | - | 706 W/m² | - |
| 1777915823 | 20° C | 50% | 1009 hPa | 0 mm | - | 718 W/m² | - |
| 1777915519 | 20° C | 50% | 1008.9 hPa | 0 mm | - | 774 W/m² | - |
| 1777915215 | 20° C | 50% | 1009 hPa | 0 mm | - | 764 W/m² | - |
| 1777914912 | 20° C | 51% | 1009 hPa | 0 mm | - | 767 W/m² | - |
| 1777914609 | 20° C | 50% | 1009.4 hPa | 0 mm | - | 575 W/m² | - |
| 1777914305 | 19.44° C | 51% | 1009 hPa | 0 mm | - | 650 W/m² | - |
| 1777914003 | 19.44° C | 51% | 1009.4 hPa | 0 mm | - | 277 W/m² | - |
| 1777913699 | 20° C | 52% | 1009.5 hPa | 0 mm | - | 738 W/m² | - |
| 1777913395 | 20° C | 50% | 1009.5 hPa | 0 mm | - | 754 W/m² | - |
| 1777913092 | 19.44° C | 51% | 1009.6 hPa | 0 mm | - | 711 W/m² | - |
| 1777912789 | 20° C | 50% | 1009.9 hPa | 0 mm | - | 656 W/m² | - |
| 1777912484 | 19.44° C | 50% | 1009.6 hPa | 0 mm | - | 680 W/m² | - |
| 1777912181 | 19.44° C | 51% | 1010 hPa | 0 mm | - | 697 W/m² | - |
| 1777911877 | 18.89° C | 52% | 1010 hPa | 0 mm | - | 688 W/m² | - |
| 1777911574 | 18.89° C | 52% | 1009.8 hPa | 0 mm | - | 709 W/m² | - |
| 1777911270 | 18.33° C | 52% | 1009.9 hPa | 0 mm | - | 728 W/m² | - |
| 1777910967 | 18.33° C | 53% | 1010 hPa | 0 mm | - | 662 W/m² | - |
| 1777910665 | 18.33° C | 51% | 1010 hPa | 0 mm | - | 65 W/m² | - |
| 1777910361 | 17.78° C | 53% | 1010 hPa | 0 mm | - | 73 W/m² | - |
| 1777910058 | 17.78° C | 55% | 1010.3 hPa | 0 mm | - | 60 W/m² | - |
* Rain latest hour (hover to see other rain measurements)
** Current wind speed in m/s (hover to see current wind gust speed)